Torna al catalogo

RADCAL

AttivoMilitarePO
NORAD 22698·PAYLOAD·🇺🇸 United States

Lanciato Jun 25, 1993 da Vandenberg Space Force Base

Loading…

Prossimi Passaggi (prossime 24 ore)

TLE

AggiornatoSource: Space-Track

Epoca: Sep 14, 2026, 10:06 UTC

1 22698U 93041A   26257.42132977  .00000110  00000-0  40921-4 0  9993
2 22698  89.5000  55.2200 0085978 253.7686 105.4034 14.24202862724897

Traccia RADCAL in tempo reale con AllMySat

Download on the App Store